Showing default

HULIANWANG DIGUI-01, 62323

Orbit data source: Space-Track

HULIANWANG DIGUI-01, 62323 is a payload satellite owned by Zhongguo Xingwang (CN) in LEO that was launched on Mon, 16 Dec 2024 UTC via a CHANG ZHENG 5B/YZ-2 launch vehicle from the Wenchang Satellite Launch Center (WSC). Payload-class satellites include a variety of spacecraft equipped with specific instruments for various scientific and technological missions. These include communications satellites like Starlink; space stations such as the ISS; scientific satellites like the Hubble; Earth observation satellites from companies like Planet Labs, Umbra, and HawkEye 360; GPS; miniature CubeSats for education and research; and military/defense satellites.

Loading next visibility...
Identifier
62323, 2024-240A
Orbit
LEO
Country
Flag of CNCN / PRC
Related business
Manufacturer
CAST?
Mission
Operational Civil Communications
Bus & Motor
GUOWANG C, Unknown motor
Mass
~800 kg wet, ~800 kg dry
Launch date (UTC)
2024-12-16 (1 year ago)
Launch vehicle
CHANG ZHENG 5B/YZ-2
Launch site
Wenchang Satellite Launch Center (WSC)
Object type
Payload
Rocket body
Debris
Shape & HBR
Box + 2 Pan, 5.0 m
Radar Cross Section
5.935 m², Large (>1 m²)

Expand to show TLE details & history
Last TLE update: 14 hours ago

TLE from 14 hours ago
0 HULIANWANG DIGUI-01
1 62323U 24240A   25341.25729116  .00000085  00000-0  16410-3 0  9994
2 62323  86.4992  47.9830 0001751  94.9620 265.1714 13.24412450 47239
Epoch: 2025-12-07T06:10Z
TLE epoch observation values (Epoch: 2025-12-07T06:10:29.956Z)
Latitude
-0°
Longitude
-120.91509°
Altitude
1,170.919 km
Speed
7.268 km/s
True Right ascension
03h 11m 55s
True Declination
0° 00' 00"
Sunlit
Object was in full shadow at epoch
Visualization orbit readout
Latitude
Unknown
Longitude
Unknown
Altitude
Unknown
Speed
Unknown
Apparent Right ascension
Unknown
Apparent Declination
Unknown
Sunlit
N/A
Visualization observer readout
Local Sidereal Time
18:32:44
Azimuth
Unknown
Elevation
Unknown
Doppler factor
Unknown
Orbital elements
Apogee altitude
1,166.354 km
Perigee altitude
1,163.712 km
Semi-major axis
7,543.17 km
Eccentricity
0.00018
Inclination
86.4992°
RAAN
47.983°
Arg. of periapsis
94.962°
True anomaly
265.15141°
Mean anomaly
265.1714°
Eccentric anomaly
265.1614°
Mean motion
3.31293 °/min
Orbital period
108.67 mins
BSTAR
0.0001641
Loading maneuver chart data...
Computing Atmospheric mass density...
Loading historical data...
Loading historical data...
Loading historical data...
Loading historical data...
Loading historical data...
Loading historical data...
Loading historical data...

Documentation

Showing up to 5 results
|